Lid_Strength_Index
-1 -1 -1 -1 -1 -1 -1 -1 -1 -1 -1 -1 -1 -1 -1 -1 -1 -1 -1 -1 -1 -2 -2 -1 -1 -1 -0 -0 1 1 2 2 2 2 2 2 2 2 2 2 3 2 3
-1 -1 -1 -1 -1 -1 -1 -1 -1 -1 -1 -1 -1 -1 -1 -1 -1 -1 -1 -1 -1 -2 -2 -2 -2 -1 -1 -0 0 1 2 2 2 3 3 3 3 3 3 3 3 3 3
-2 -2 -1 -1 -1 -2 -2 -1 -1 -1 -1 -1 -1 -1 -1 -1 -1 -2 -1 -1 -0 -1 -1 -2 -2 -2 -1 -1 -1 -0 1 2 3 3 3 3 3 3 3 3 3 3 3
-2 -2 -1 -1 -1 -2 -1 -1 -0 0 -0 -0 0 -0 -1 -1 -1 -1 -1 -1 -1 -1 -1 -2 -2 -2 -2 -2 -2 -1 -0 1 2 3 3 3 3 3 3 3 4 4 3
-1 -1 -1 -1 -2 -1 -1 -1 -0 0 0 0 0 0 -0 -0 -0 -1 -1 -1 -2 -1 -2 -1 -1 -2 -2 -2 -2 -2 -1 1 2 3 3 4 4 3 3 4 4 4 3
-1 -1 -1 -1 -1 -0 -0 -0 -1 0 0 0 1 1 1 -0 -0 -0 -0 -1 -1 -1 -2 -2 -1 -1 -2 -2 -2 -2 -2 -1 2 2 4 5 4 3 4 4 4 4 4
-1 -1 -1 -1 -1 -0 -1 -1 -0 0 1 -0 1 1 1 -0 -0 -0 -1 -1 -1 -1 -1 -1 -1 -1 -2 -1 -2 -2 -2 -1 1 2 4 4 4 4 4 4 4 4 4
-1 -1 -1 -1 -1 -0 -0 -0 -0 1 1 0 2 2 4 2 1 -0 -1 -1 -1 -1 -1 -1 -1 -1 -1 -2 -1 -1 -2 -1 0 1 3 5 4 4 4 4 4 4 4
-1 -1 -1 -0 -1 -1 0 -0 -0 0 2 1 -0 2 4 5 2 1 0 -0 -1 -0 -1 -1 -1 -2 -2 -1 -2 -1 -1 -1 -1 1 2 3 4 4 4 4 4 4 3
-1 -1 -1 -1 -1 -0 -0 -0 -0 0 1 2 1 0 0 1 3 3 1 0 -0 -0 -1 -1 -1 -1 -1 -1 -1 -1 -1 -1 -1 1 2 4 4 5 4 4 4 3 1
-1 -1 -1 -1 -0 -0 -1 -1 -1 -0 0 1 2 1 0 1 0 2 3 3 1 -0 -1 -0 -1 -1 -1 -1 -2 -1 -1 -1 0 2 3 4 5 5 5 4 4 4 3
0 -0 -1 -1 -1 -0 -0 -0 -1 -0 0 1 0 0 1 2 2 2 3 2 2 0 -0 -1 -0 -1 -1 -1 -1 -1 -0 1 3 3 4 5 6 6 6 5 5 4 4
1 0 -0 -0 -0 -0 -1 -1 -0 -0 0 0 -0 0 0 0 0 0 1 2 2 1 1 -0 -0 -1 -1 -1 -1 -1 1 3 4 5 6 6 6 6 7 6 6 6 6
0 -0 -0 -0 -0 -0 -1 -1 -0 0 -0 0 -0 -0 0 -0 -0 0 1 2 3 2 1 1 -0 -0 -1 -1 -1 1 3 4 5 6 7 7 7 7 7 7 7 7 7
0 -0 -0 -0 -0 -0 -0 -0 0 0 -0 -0 -0 -0 0 -0 -0 -0 -0 0 2 4 3 2 1 -1 -1 -1 1 4 4 5 6 7 8 8 8 7 6 7 8 8 7
0 0 -0 -0 -0 -0 -0 -0 0 -0 0 0 0 0 0 -0 -1 -0 -0 0 0 2 3 2 1 0 -0 1 2 4 4 5 6 7 8 8 9 8 7 7 8 8 8
0 0 0 -0 0 0 -0 0 0 0 1 0 -0 0 0 -0 -0 -0 -0 -0 0 1 2 2 1 -0 1 2 3 4 4 5 6 6 7 8 9 9 8 8 8 8 9
1 0 0 0 0 0 0 0 1 0 1 1 1 0 1 0 -0 -1 0 -1 -0 -1 1 2 1 1 1 2 3 4 5 5 6 6 8 8 9 8 8 7 8 9 9
-0 1 1 1 1 0 0 0 0 0 0 1 1 1 1 0 1 0 0 0 0 0 0 1 2 1 1 3 3 4 5 5 5 6 8 8 8 9 8 8 8 9 9
0 0 1 1 1 1 1 1 0 1 0 0 0 0 0 1 1 1 1 0 0 1 0 1 2 2 1 1 2 4 5 5 6 6 8 7 8 10 9 8 7 9 10
0 0 0 1 1 0 0 1 1 1 1 1 0 1 2 2 2 2 3 1 0 1 1 1 1 2 2 2 2 2 3 4 5 6 8 8 9 8 7 8 9 10 11
-0 0 1 0 0 0 6 6 4 1 0 1 1 2 2 3 2 1 2 2 3 1 1 1 1 1 2 1 1 1 2 5 6 5 7 8 8 10 8 7 10 11 11
-0 0 0 0 1 0 5 7 6 0 1 1 1 1 3 1 2 1 2 3 2 3 2 0 1 1 0 0 -0 1 1 2 2 5 5 8 8 9 9 9 10 11 11
0 0 0 0 0 0 6 7 7 0 0 0 1 1 1 1 1 1 1 1 1 0 -0 -0 -0 -1 -1 -1 -1 -0 -0 2 3 4 5 6 7 8 8 8 10 10 11
1 1 0 0 0 0 5 7 5 0 1 1 1 0 1 1 3 6 1 2 2 1 2 4 5 7 7 7 3 -0 2 2 3 4 5 4 6 8 9 9 8 10 12
1 0 0 0 1 0 4 7 5 1 1 1 1 1 5 2 7 8 2 2 2 2 1 0 -0 2 3 2 4 -1 0 2 2 3 3 3 6 8 10 9 8 8 7